Date_and_time,latitude,longitude,wind_speed,RelWindDirFrom,WindDirFrom,air_pressure,air_temperature,relative_humidity,Temp,platform_speed_wrt_ground,air_pressure_at_mean_sea_level,platform_orientation
2019-04-29 00:00,50.6304566666667,-96.980765,11.7,13.5,7,994.35,0.9,73,4.93,0.0,1022.25,48.3
2019-04-29 00:10,50.6304466666667,-96.9807516666667,11.8,13.3,8,994.33,0.7,75,4.89,0.0,1022.23,48.3
2019-04-29 00:20,50.6304566666667,-96.980765,11.9,13.3,7,994.28,0.6,76,4.87,0.0,1022.19,48.3
2019-04-29 00:30,50.6304466666667,-96.980775,11.8,13.6,8,994.34,0.5,76,4.85,0.0,1022.24,48.3
2019-04-29 00:40,50.6304533333333,-96.9807766666667,12.3,14.4,7,994.35,0.6,75,4.85,0.0,1022.27,48.3
2019-04-29 00:50,50.630455,-96.980775,11.9,14.5,6,994.37,0.6,75,4.83,0.0,1022.28,48.3
2019-04-29 01:00,50.630455,-96.980775,11.7,13.6,7,994.45,0.5,77,4.81,0.0,1022.35,38.0
2019-04-29 01:10,50.6304233333333,-96.9807783333333,12.3,14.1,5,994.50,0.5,77,4.80,0.0,1022.41,38.0
2019-04-29 01:20,50.6304516666667,-96.98078,12.4,14.5,6,994.61,0.4,78,4.83,0.0,1022.54,38.0
2019-04-29 01:30,50.6304533333333,-96.9807716666667,11.9,14.3,6,994.77,0.4,79,4.87,0.0,1022.72,38.0
2019-04-29 01:40,50.6304516666667,-96.9807683333333,10.9,13.3,13,994.91,0.4,80,4.91,0.0,1022.89,38.0
2019-04-29 01:50,50.6304566666667,-96.9807716666667,12.1,14.2,6,994.94,0.3,80,4.92,0.0,1022.94,38.0
2019-04-29 02:00,50.6304466666667,-96.9807766666667,11.4,14.5,11,995.11,0.3,81,4.92,0.0,1023.13,228.3
2019-04-29 02:10,50.630455,-96.9808583333333,11.6,14.9,13,995.26,0.3,80,4.92,0.0,1023.28,228.3
2019-04-29 02:20,50.6304616666667,-96.980785,12.8,14.9,8,995.33,0.5,79,4.89,0.0,1023.35,228.3
2019-04-29 02:30,50.630465,-96.9807866666667,11.5,15.2,9,995.46,0.3,82,4.88,0.0,1023.49,228.3
2019-04-29 02:40,50.63046,-96.98078,10.3,12.6,15,995.60,0.2,84,4.87,0.0,1023.64,228.3
2019-04-29 02:50,50.630455,-96.98078,11.1,13.4,7,995.64,0.1,85,4.87,0.0,1023.69,228.3
2019-04-29 03:00,50.63047,-96.9807733333333,12.2,14.5,5,995.62,0.1,83,4.88,0.0,1023.67,360.0
2019-04-29 03:10,50.6304516666667,-96.9807616666667,12.1,14.6,3,995.67,0.1,84,4.87,0.0,1023.73,360.0
2019-04-29 03:20,50.6304366666667,-96.98076,11.4,13.7,5,995.74,-0.0,85,4.88,0.0,1023.81,360.0
2019-04-29 03:30,50.6304533333333,-96.9807483333333,11.6,14.2,3,995.78,-0.1,87,4.88,0.0,1023.85,360.0
2019-04-29 03:40,50.6304533333333,-96.9807483333333,11.2,13.3,5,995.83,-0.2,88,4.88,0.0,1023.91,360.0
2019-04-29 03:50,50.6304533333333,-96.9807516666667,11.2,13.7,4,995.88,-0.2,86,4.88,0.0,1023.96,360.0
2019-04-29 04:00,50.6304516666667,-96.9807516666667,11.4,13.8,5,995.89,-0.1,85,4.88,0.0,1023.97,90.0
2019-04-29 04:10,50.6304516666667,-96.980755,11.3,13.8,6,995.92,-0.2,84,4.88,0.0,1023.99,90.0
2019-04-29 04:20,50.6304533333333,-96.9807583333333,11.6,13.7,6,995.90,-0.2,84,4.86,0.0,1023.99,90.0
2019-04-29 04:30,50.630455,-96.9807583333333,11.6,13.9,6,995.94,-0.2,84,4.85,0.0,1024.03,90.0
2019-04-29 04:40,50.630455,-96.98076,11.2,12.9,7,995.99,-0.2,83,4.85,0.0,1024.09,90.0
2019-04-29 04:50,50.6304633333333,-96.9807683333333,10.6,13.7,9,996.08,-0.2,84,4.86,0.0,1024.18,90.0
2019-04-29 05:00,50.6304283333333,-96.9807683333333,10.4,11.7,7,996.15,-0.2,84,4.86,0.0,1024.26,360.0
2019-04-29 05:10,50.6304483333333,-96.9807733333333,9.7,11.2,8,996.19,-0.2,84,4.87,0.0,1024.30,360.0
2019-04-29 05:20,50.63045,-96.9807733333333,9.5,11.0,5,996.20,-0.2,84,4.86,0.0,1024.31,360.0
2019-04-29 05:30,50.63045,-96.9807766666667,9.3,11.0,8,996.19,-0.2,83,4.85,0.0,1024.32,360.0
2019-04-29 05:40,50.63045,-96.9807733333333,9.6,11.0,8,996.19,-0.2,82,4.84,0.0,1024.31,360.0
2019-04-29 05:50,50.63045,-96.9807733333333,9.6,10.8,9,996.19,-0.2,81,4.84,0.0,1024.31,360.0
2019-04-29 06:00,50.63045,-96.980755,9.3,11.0,10,996.26,-0.3,81,4.84,0.0,1024.38,165.5
2019-04-29 06:10,50.6304533333333,-96.9807566666667,9.7,11.2,16,996.28,-0.3,80,4.84,0.0,1024.41,165.5
2019-04-29 06:20,50.6304583333333,-96.980775,10.5,12.3,16,996.21,-0.2,78,4.83,0.0,1024.33,165.5
2019-04-29 06:30,50.6304633333333,-96.9807733333333,10.9,12.9,19,996.19,-0.2,77,4.83,0.0,1024.31,165.5
2019-04-29 06:40,50.6304583333333,-96.9807716666667,11.4,13.3,22,996.17,-0.2,75,4.83,0.0,1024.29,165.5
2019-04-29 06:50,50.6304583333333,-96.9807716666667,11.0,12.7,23,996.12,-0.2,76,4.83,0.0,1024.24,165.5
2019-04-29 07:00,50.6304583333333,-96.98077,10.7,12.5,23,996.09,-0.3,77,4.82,0.0,1024.21,299.2
2019-04-29 07:10,50.6304566666667,-96.9807683333333,10.6,12.1,24,996.07,-0.4,76,4.82,0.0,1024.20,299.2
2019-04-29 07:20,50.630455,-96.9807683333333,10.5,12.5,26,996.00,-0.4,77,4.82,0.0,1024.13,299.2
2019-04-29 07:30,50.630455,-96.9807633333333,10.1,11.6,23,995.95,-0.5,77,4.81,0.0,1024.08,299.2
2019-04-29 07:40,50.6304566666667,-96.9807716666667,9.9,11.8,24,995.88,-0.5,78,4.80,0.0,1024.01,299.2
2019-04-29 07:50,50.630455,-96.980775,10.1,12.0,23,995.83,-0.5,79,4.79,0.0,1023.97,299.2
2019-04-29 08:00,50.6304533333333,-96.9807716666667,9.4,10.8,28,995.80,-0.6,80,4.78,0.0,1023.94,346.7
2019-04-29 08:10,50.6304516666667,-96.9807733333333,9.4,10.8,31,995.74,-0.5,78,4.77,0.0,1023.87,346.7
2019-04-29 08:20,50.6304516666667,-96.9807733333333,9.8,13.6,33,995.67,-0.5,79,4.77,0.0,1023.80,346.7
2019-04-29 08:30,50.6304516666667,-96.9807733333333,11.0,13.5,32,995.61,-0.5,78,4.77,0.0,1023.73,346.7
2019-04-29 08:40,50.6304516666667,-96.9807716666667,10.8,13.1,31,995.61,-0.6,79,4.77,0.0,1023.74,346.7
2019-04-29 08:50,50.6304533333333,-96.9807716666667,10.4,13.8,26,995.59,-0.7,80,4.76,0.0,1023.73,346.7
2019-04-29 09:00,50.6304533333333,-96.9807716666667,9.6,12.4,27,995.58,-0.7,81,4.76,0.0,1023.72,270.0
2019-04-29 09:10,50.6304583333333,-96.9807683333333,10.5,12.1,28,995.52,-0.7,80,4.75,0.0,1023.66,270.0
2019-04-29 09:20,50.6304533333333,-96.98077,10.7,12.5,28,995.50,-0.8,81,4.75,0.0,1023.65,270.0
2019-04-29 09:30,50.6304516666667,-96.9807666666667,11.1,13.1,26,995.47,-0.8,80,4.75,0.0,1023.61,270.0
2019-04-29 09:40,50.6304533333333,-96.980765,10.9,12.4,29,995.50,-0.7,79,4.73,0.0,1023.65,270.0
2019-04-29 09:50,50.6304283333333,-96.980775,11.1,13.6,32,995.51,-0.8,80,4.70,0.0,1023.67,270.0
2019-04-29 10:00,50.63044,-96.9807683333333,11.7,13.7,34,995.52,-0.9,82,4.66,0.0,1023.67,161.1
2019-04-29 10:10,50.630455,-96.9807566666667,11.8,13.9,32,995.53,-0.9,82,4.65,0.0,1023.69,161.1
2019-04-29 10:20,50.63045,-96.980765,11.9,14.3,31,995.51,-0.9,82,4.64,0.0,1023.67,161.1
2019-04-29 10:30,50.6304433333333,-96.9807566666667,11.8,13.8,27,995.53,-1.0,82,4.59,0.0,1023.69,161.1
2019-04-29 10:40,50.6304483333333,-96.9807566666667,11.6,13.7,23,995.60,-1.1,83,4.57,0.0,1023.77,161.1
2019-04-29 10:50,50.63045,-96.98076,12.4,14.2,23,995.69,-1.0,82,4.57,0.0,1023.87,161.1
2019-04-29 11:00,50.6304533333333,-96.9807633333333,12.1,14.3,25,995.80,-1.0,80,4.58,0.0,1023.97,90.0
2019-04-29 11:10,50.6304533333333,-96.980765,12.0,13.9,23,995.90,-1.0,80,4.59,0.0,1024.08,90.0
2019-04-29 11:20,50.630455,-96.9807666666667,11.7,13.7,22,995.98,-1.0,80,4.58,0.0,1024.17,90.0
2019-04-29 11:30,50.630455,-96.9807666666667,12.1,14.2,23,996.01,-1.0,79,4.60,0.0,1024.19,90.0
2019-04-29 11:40,50.6304533333333,-96.9807683333333,11.9,13.9,24,996.09,-1.1,80,4.61,0.0,1024.28,90.0
2019-04-29 11:50,50.6304533333333,-96.98077,11.1,12.7,27,996.22,-1.1,81,4.60,0.0,1024.43,90.0
2019-04-29 12:00,50.6304533333333,-96.98077,10.8,12.8,23,996.34,-1.1,82,4.56,0.0,1024.55,90.0
2019-04-29 12:10,50.63047,-96.9807033333333,11.0,13.4,21,996.43,-1.1,82,4.54,0.0,1024.64,90.0
2019-04-29 12:20,50.630455,-96.9807716666667,10.8,12.6,20,996.52,-1.0,82,4.53,0.0,1024.73,90.0
2019-04-29 12:30,50.6304533333333,-96.9807666666667,11.1,12.9,17,996.65,-1.0,81,4.51,0.0,1024.87,90.0
2019-04-29 12:40,50.6304516666667,-96.98077,10.7,12.5,17,996.75,-1.0,81,4.51,0.0,1024.97,90.0
2019-04-29 12:50,50.6304533333333,-96.980775,10.3,12.1,15,996.84,-1.0,82,4.50,0.0,1025.06,90.0
2019-04-29 13:00,50.6304516666667,-96.9807733333333,10.3,11.8,13,996.85,-1.0,82,4.50,0.0,1025.07,345.5
2019-04-29 13:10,50.6304516666667,-96.9807733333333,10.2,11.8,13,996.87,-1.0,82,4.50,0.0,1025.10,345.5
2019-04-29 13:20,50.6304516666667,-96.980775,10.2,11.5,10,996.90,-1.1,83,4.49,0.0,1025.13,345.5
2019-04-29 13:30,50.63045,-96.9807733333333,10.3,11.8,9,996.90,-1.0,83,4.47,0.0,1025.13,345.5
2019-04-29 13:40,50.63045,-96.9807783333333,10.0,11.5,9,996.87,-1.0,83,4.46,0.0,1025.09,345.5
2019-04-29 13:50,50.6304483333333,-96.9807766666667,10.2,11.9,11,996.79,-0.8,82,4.44,0.0,1025.00,345.5
2019-04-29 14:00,50.63045,-96.9807716666667,10.1,11.7,9,996.79,-0.7,81,4.42,0.0,1025.00,270.0
2019-04-29 14:10,50.63045,-96.9807716666667,9.9,12.4,9,996.83,-0.6,81,4.43,0.0,1025.04,270.0
2019-04-29 14:20,50.63045,-96.9807716666667,9.8,12.1,8,996.87,-0.6,81,4.43,0.0,1025.06,270.0
2019-04-29 14:30,50.6304483333333,-96.98077,10.0,11.7,9,996.81,-0.5,81,4.46,0.0,1025.00,270.0
2019-04-29 14:40,50.6304483333333,-96.9807683333333,10.2,12.1,6,996.82,-0.3,81,4.50,0.0,1025.01,270.0
2019-04-29 14:50,50.6304416666667,-96.9807966666667,11.1,13.9,3,996.77,-0.2,77,4.51,0.0,1024.95,270.0
2019-04-29 15:00,50.63044,-96.9807716666667,11.3,13.5,4,996.73,0.0,74,4.54,0.0,1024.89,221.3
2019-04-29 15:10,50.63044,-96.9807616666667,11.5,14.5,1,996.74,0.2,74,4.56,0.0,1024.90,221.3
2019-04-29 15:20,50.63044,-96.9807683333333,11.9,16.5,0,996.72,0.3,73,4.57,0.0,1024.87,221.3
2019-04-29 15:30,50.63044,-96.9807683333333,12.4,14.7,2,996.70,0.4,72,4.57,0.0,1024.85,221.3
2019-04-29 15:40,50.6304416666667,-96.9807716666667,12.4,14.8,3,996.65,0.5,71,4.57,0.0,1024.78,221.3
2019-04-29 15:50,50.6304416666667,-96.9807733333333,11.2,13.5,7,996.61,0.5,76,4.55,0.0,1024.73,221.3
2019-04-29 16:00,50.6304433333333,-96.9807716666667,11.4,14.3,2,996.67,0.7,73,4.54,0.0,1024.77,360.0
2019-04-29 16:10,50.63044,-96.9807683333333,13.1,15.8,354,996.69,0.9,70,4.54,0.0,1024.78,360.0
2019-04-29 16:20,50.6304633333333,-96.9807733333333,13.6,16.7,2,996.62,1.0,66,4.54,0.0,1024.70,360.0
2019-04-29 16:30,50.6304516666667,-96.9807716666667,12.2,14.7,1,996.73,1.2,68,4.55,0.0,1024.80,360.0
2019-04-29 16:40,50.6304516666667,-96.9807783333333,12.7,15.8,1,996.71,1.2,68,4.58,0.0,1024.77,360.0
2019-04-29 16:50,50.6304516666667,-96.9807766666667,12.7,15.7,1,996.68,1.3,68,4.59,0.0,1024.72,360.0
2019-04-29 17:00,50.63045,-96.980775,13.4,16.7,359,996.66,1.4,69,4.60,0.0,1024.68,0.0
2019-04-29 17:10,50.63045,-96.980775,13.5,17.9,0,996.65,1.6,67,4.60,0.0,1024.66,0.0
2019-04-29 17:20,50.6304483333333,-96.980775,13.6,16.9,359,996.63,1.8,65,4.62,0.0,1024.63,0.0
2019-04-29 17:30,50.6304483333333,-96.9807733333333,14.2,18.8,359,996.59,1.8,64,4.64,0.0,1024.58,0.0
2019-04-29 17:40,50.6304333333333,-96.98076,14.6,18.4,358,996.60,2.1,59,4.68,0.0,1024.57,0.0
2019-04-29 17:50,50.6304433333333,-96.980815,14.1,17.1,359,996.58,2.2,59,4.72,0.0,1024.54,0.0
2019-04-29 18:00,50.630445,-96.9807616666667,14.3,17.7,1,996.55,2.2,59,4.73,0.0,1024.50,90.0
2019-04-29 18:10,50.6304416666667,-96.9807766666667,13.6,17.3,3,996.51,2.2,60,4.75,0.0,1024.45,90.0
2019-04-29 18:20,50.6304433333333,-96.9807766666667,14.1,17.5,3,996.48,2.3,59,4.78,0.0,1024.41,90.0
2019-04-29 18:30,50.630445,-96.9807716666667,14.4,18.0,4,996.44,2.3,59,4.94,0.0,1024.36,90.0
2019-04-29 18:40,50.6304466666667,-96.9807716666667,14.8,17.7,5,996.41,2.3,59,4.79,0.0,1024.33,90.0
2019-04-29 18:50,50.630445,-96.98077,14.0,16.8,4,996.37,2.2,61,4.78,0.0,1024.29,90.0
2019-04-29 19:00,50.630445,-96.98077,15.2,18.0,3,996.28,2.4,58,4.78,0.0,1024.18,90.0
2019-04-29 19:10,50.630445,-96.98077,14.1,16.6,5,996.24,2.4,61,4.79,0.0,1024.13,90.0
2019-04-29 19:20,50.630445,-96.98077,13.5,16.8,3,996.26,2.3,62,4.83,0.0,1024.15,90.0
2019-04-29 19:30,50.6304466666667,-96.98077,13.9,17.9,3,996.28,2.7,57,4.84,0.0,1024.14,90.0
2019-04-29 19:40,50.63043,-96.9807683333333,13.1,16.6,2,996.30,2.8,57,4.83,0.0,1024.14,90.0
2019-04-29 19:50,50.6304383333333,-96.9807666666667,13.6,16.5,360,996.22,3.2,52,4.83,0.0,1024.04,90.0
2019-04-29 20:00,50.6304433333333,-96.9807716666667,13.7,16.9,2,996.29,3.3,53,4.82,0.0,1024.11,360.0
2019-04-29 20:10,50.6304433333333,-96.9807733333333,14.0,16.7,0,996.25,3.5,49,4.82,0.0,1024.05,360.0
2019-04-29 20:20,50.630445,-96.980775,13.6,16.4,359,996.34,3.7,48,4.83,0.0,1024.14,360.0
2019-04-29 20:30,50.6304466666667,-96.980775,13.2,15.9,359,996.39,3.7,48,4.84,0.0,1024.18,360.0
2019-04-29 20:40,50.6304466666667,-96.980775,13.2,16.6,357,996.35,3.8,47,4.85,0.0,1024.14,360.0
2019-04-29 20:50,50.6304466666667,-96.9807733333333,12.5,15.1,358,996.35,4.0,46,4.85,0.0,1024.12,360.0
2019-04-29 21:00,50.630445,-96.9807733333333,12.5,15.0,357,996.35,4.1,45,4.86,0.0,1024.11,270.0
2019-04-29 21:10,50.630445,-96.9807716666667,11.4,13.3,358,996.36,4.3,45,4.87,0.0,1024.13,270.0
2019-04-29 21:20,50.630445,-96.9807733333333,12.1,14.6,359,996.28,4.4,45,4.87,0.0,1024.02,270.0
2019-04-29 21:30,50.6304466666667,-96.9807733333333,11.9,14.6,360,996.31,4.4,44,4.87,0.0,1024.03,270.0
2019-04-29 21:40,50.6304483333333,-96.980775,12.1,13.8,360,996.32,4.3,45,4.87,0.0,1024.04,270.0
2019-04-29 21:50,50.6304433333333,-96.980775,12.1,14.0,0,996.24,4.5,45,4.87,0.0,1023.94,270.0
2019-04-29 22:00,50.6304466666667,-96.980755,12.3,14.3,358,996.20,4.6,45,4.87,0.0,1023.88,12.6
2019-04-29 22:10,50.63044,-96.9807583333333,11.6,13.9,360,996.24,4.5,46,4.88,0.0,1023.93,12.6
2019-04-29 22:20,50.6304366666667,-96.9807516666667,11.6,13.3,359,996.31,4.6,45,4.88,0.0,1023.99,12.6
2019-04-29 22:30,50.630445,-96.9807583333333,10.2,12.9,356,996.30,4.6,45,4.88,0.0,1023.98,12.6
2019-04-29 22:40,50.6304466666667,-96.980765,10.2,12.8,356,996.29,4.8,43,4.88,0.0,1023.95,12.6
2019-04-29 22:50,50.6304483333333,-96.9807666666667,9.5,11.2,356,996.35,4.9,43,4.88,0.0,1024.00,12.6
2019-04-29 23:00,50.6304483333333,-96.9807666666667,9.3,10.9,360,996.40,4.6,46,4.88,0.0,1024.05,12.6
2019-04-29 23:10,50.6304683333333,-96.98078,8.7,10.1,1,996.46,4.1,49,4.88,0.0,1024.13,12.6
2019-04-29 23:20,50.6304616666667,-96.9807716666667,9.0,10.3,1,996.45,4.0,50,4.88,0.0,1024.13,12.6
2019-04-29 23:30,50.6304733333333,-96.9807766666667,8.5,10.1,0,996.48,3.8,52,4.88,0.0,1024.18,12.6
